Location: Avon Lake
(41.5219°N, 93.5010°W)
Time: 14:26:47
(UTC+00:00)

BlueWalker 3 - Pass Details

Date: 05 December 2022
Orbit: 499 x 517 km, 53.2° (Epoch: 01 February)

Event Time Altitude Azimuth Distance (km) Brightness Sun altitude
Rises 01:00:47 0° 311° (NW) 2,624 6.1 -24.9°
Reaches altitude 10° 01:03:18 10° 326° (NW) 1,732 4.9 -25.3°
Enters shadow 01:04:20 16° 337° (NNW) 1,413 4.3 -25.5°
